TimeEDT,TemperatureF,Dew PointF,Humidity,Sea Level PressureIn,VisibilityMPH,Wind Direction,Wind SpeedMPH,Gust SpeedMPH,PrecipitationIn,Events,Conditions,WindDirDegrees,DateUTC
12:56 AM,32.0,10.9,42,29.85,10.0,West,15.0,20.7,N/A,,Clear,280,2013-04-02 04:56:00
1:56 AM,30.9,10.0,42,29.86,10.0,West,10.4,-,N/A,,Clear,270,2013-04-02 05:56:00
3:56 AM,28.9,9.0,43,29.86,10.0,WSW,6.9,-,N/A,,Clear,250,2013-04-02 07:56:00
4:56 AM,28.0,9.0,45,29.87,10.0,West,4.6,-,N/A,,Clear,260,2013-04-02 08:56:00
5:56 AM,28.9,10.0,45,29.89,10.0,WSW,9.2,-,N/A,,Clear,250,2013-04-02 09:56:00
6:56 AM,28.0,10.9,49,29.90,10.0,WSW,8.1,-,N/A,,Clear,240,2013-04-02 10:56:00
7:56 AM,30.9,12.9,47,29.92,10.0,West,9.2,18.4,N/A,,Clear,260,2013-04-02 11:56:00
8:56 AM,33.1,12.9,43,29.92,10.0,West,13.8,23.0,N/A,,Clear,270,2013-04-02 12:56:00
9:56 AM,34.0,10.9,38,29.92,10.0,West,17.3,24.2,N/A,,Mostly Cloudy,260,2013-04-02 13:56:00
10:56 AM,36.0,10.0,34,29.91,10.0,WSW,12.7,23.0,N/A,,Mostly Cloudy,250,2013-04-02 14:56:00
11:56 AM,37.9,9.0,30,29.90,10.0,West,18.4,34.5,N/A,,Mostly Cloudy,270,2013-04-02 15:56:00
12:56 PM,39.0,10.0,30,29.88,10.0,West,17.3,28.8,0.00,,Mostly Cloudy,260,2013-04-02 16:56:00
1:56 PM,37.0,8.1,30,29.87,10.0,West,19.6,32.2,N/A,,Overcast,280,2013-04-02 17:56:00
2:56 PM,37.0,9.0,31,29.86,10.0,West,16.1,24.2,N/A,,Mostly Cloudy,280,2013-04-02 18:56:00
3:56 PM,37.9,9.0,30,29.86,10.0,West,11.5,32.2,N/A,,Mostly Cloudy,260,2013-04-02 19:56:00
4:56 PM,36.0,5.0,27,29.87,10.0,WNW,25.3,38.0,N/A,,Scattered Clouds,290,2013-04-02 20:56:00
5:56 PM,36.0,7.0,30,29.89,10.0,West,19.6,28.8,N/A,,Mostly Cloudy,270,2013-04-02 21:56:00
6:56 PM,34.0,7.0,32,29.92,10.0,West,11.5,29.9,N/A,,Scattered Clouds,280,2013-04-02 22:56:00
7:56 PM,34.0,7.0,32,29.94,10.0,West,18.4,25.3,N/A,,Overcast,260,2013-04-02 23:56:00
8:56 PM,33.1,8.1,35,29.96,10.0,West,12.7,24.2,N/A,,Mostly Cloudy,260,2013-04-03 00:56:00
9:56 PM,32.0,10.0,40,29.98,10.0,West,9.2,-,N/A,,Partly Cloudy,270,2013-04-03 01:56:00
10:56 PM,32.0,12.0,44,29.97,10.0,West,8.1,-,N/A,,Mostly Cloudy,260,2013-04-03 02:56:00
11:56 PM,32.0,12.0,44,29.96,10.0,West,11.5,18.4,N/A,,Mostly Cloudy,270,2013-04-03 03:56:00